Regional Weather Roundup
Issued by NWS

Home | Current Version | Previous Version | Text Only | Print | Product List | Glossary On
Versions: 1 2 3 4 5 6 7 8 9 10 11 12 13 14 15 16 17 18 19 20 21 22 23 24 25 26 27 28 29 30 31 32 33 34 35 36 37 38 39 40 41 42 43 44 45 46 47 48 49 50
000
ASUS43 KLSX 281610
RWRMO

WEATHER SUMMARY FOR MISSOURI
NATIONAL WEATHER SERVICE SPRINGFIELD MO
1100 AM CDT SAT MAY 28 2016

NOTE: "FAIR" INDICATES FEW OR NO CLOUDS BELOW 12,000 FEET WITH NO
       SIGNIFICANT WEATHER AND/OR OBSTRUCTIONS TO VISIBILITY.
       CURRENT SKY AND/OR WEATHER CONDITIONS ARE NOT AVAILABLE FOR
       CHILLICOTHE AND FARMINGTON.

MOZ001>031-035>038-043-044-053-054-281700-
...NORTHERN AND WESTERN MISSOURI...

CITY           SKY/WX    TMP DP  RH WIND       PRES   REMARKS
KANSAS CTY INT PTSUNNY   67  61  81 W10       29.84R
KANSAS C DTWN  CLOUDY    69  60  73 W15       29.84R
LEE`S SUMMIT   PTSUNNY   70  61  73 W15       29.85R
ST JOSEPH      CLOUDY    66  60  81 SW9       29.82R
CHILLICOTHE      N/A     72  63  73 S15G22    29.83S
KIRKSVILLE     CLOUDY    73  65  75 S13G21    29.85S

$$
MOZ066>068-077>081-088>096-101>105-281700-
...SOUTHWEST MISSOURI...

CITY           SKY/WX    TMP DP  RH WIND       PRES   REMARKS
SPRINGFIELD    MOSUNNY   75  63  66 SW15      29.93R
JOPLIN         PTSUNNY   73  63  70 SW15G28   29.92R
BRANSON        MOSUNNY   73  63  68 W6        29.98R

$$
MOZ032>034-039>042-045>050-055>058-069>072-281700-
...CENTRAL MISSOURI...

CITY           SKY/WX    TMP DP  RH WIND       PRES   REMARKS
COLUMBIA       SUNNY     76  64  66 S16       29.88S
JEFFERSON CITY MOSUNNY   76  64  66 SW8       29.89R
ROLLA          MOSUNNY   75  66  73 S13G18    29.92R
SEDALIA        MOSUNNY   75  63  66 SW18      29.88R
WHITEMAN AFB   MOSUNNY   73  64  73 SW16      29.85R
WARRENSBURG    PTSUNNY   72  61  68 S17G23    29.85S

$$
MOZ051-052-059>065-281700-
...EAST CENTRAL MISSOURI...

CITY           SKY/WX    TMP DP  RH WIND       PRES   REMARKS
ST LOUIS INTL  PTSUNNY   79  65  62 S10G20    29.93S
SPIRIT OF STL  PTSUNNY   77  66  68 S8G18     29.92R
ST CHARLES     MOSUNNY   77  68  73 S12       29.92R

$$
MOZ072>076-082>087-097>100-106>115-281700-
...SOUTH CENTRAL AND SOUTHEAST MISSOURI...

CITY           SKY/WX    TMP DP  RH WIND       PRES   REMARKS
CAPE GIRARDEAU CLOUDY    74  67  78 S12       29.99R
FARMINGTON     MOSUNNY   75  67  76 S10       29.98R
POPLAR BLUFF   MOSUNNY   76  68  76 S10       29.98R
WEST PLAINS    MOSUNNY   75  63  66 S8        29.98R

$$




USA.gov is the U.S. government's official web portal to all federal, state and local government web resources and services.